Vorticity
15 16 17 19 17 16 15 14 12 11 10 9 10 10 11 11 11 12 13 14 14 14 15 15 15 15 15 15 16 16 16 15 15 15 14 14 13 13 13 12 11 10 9 8 7 7 6 6 6 6 5 5 5 5 4 4 5 5 6 6 6 6 6 6 6 7 7 7 8
8 10 12 14 13 12 11 11 10 10 10 11 12 12 13 14 14 15 15 16 16 16 16 16 15 15 14 14 13 12 12 11 11 11 10 10 10 9 8 8 6 6 5 4 4 4 4 4 5 4 4 4 4 4 4 4 4 5 5 5 6 6 6 6 6 6 7 7 7
6 6 7 8 9 9 9 9 9 9 9 10 11 12 12 13 13 13 12 12 12 12 11 11 10 9 9 8 7 6 6 6 6 6 6 5 5 5 4 4 3 3 3 3 3 3 4 4 4 4 4 4 4 4 4 4 4 5 5 5 5 5 6 6 6 6 6 6 7
6 6 6 6 7 8 8 9 8 8 7 7 8 8 8 8 8 8 7 6 6 6 6 5 4 4 4 4 3 3 3 3 3 3 3 3 3 3 3 3 2 2 2 3 3 3 3 4 4 4 4 4 4 4 4 4 5 5 6 5 5 6 6 6 7 7 6 6 6
3 2 2 3 4 5 6 6 5 5 4 4 4 4 5 5 5 4 4 4 4 4 4 3 3 3 2 2 2 2 2 2 2 2 2 2 2 2 2 2 2 2 2 2 3 3 4 4 4 5 4 4 4 4 4 5 5 6 6 6 6 6 7 7 7 7 6 6 6
1 0 -0 0 1 2 3 3 3 3 2 2 2 2 2 2 2 2 3 3 3 2 2 2 1 1 1 1 1 1 2 2 1 1 1 1 1 0 0 0 1 1 2 2 3 4 4 5 5 5 5 5 5 5 5 6 6 6 6 7 7 7 7 8 7 7 6 6 6
3 2 1 2 3 3 4 4 4 4 4 3 3 3 2 2 2 3 3 2 1 0 -0 -0 -0 -0 -0 -0 0 0 0 0 -0 -0 -0 -0 -0 -0 0 1 1 2 3 4 4 5 5 5 6 6 6 6 6 6 6 6 7 7 7 7 7 8 8 9 8 8 7 6 6
3 3 3 3 4 5 5 5 5 5 5 4 4 4 4 4 3 3 3 2 3 2 2 1 1 1 1 1 2 2 2 1 2 2 2 2 2 3 3 3 4 4 5 5 5 5 6 6 6 6 6 6 6 6 6 7 7 7 8 7 8 8 9 9 9 8 7 6 6
1 2 2 2 2 2 3 3 3 4 4 4 5 5 6 7 7 6 6 6 6 6 6 6 6 6 6 6 6 6 6 6 6 6 6 6 6 6 6 6 7 7 7 6 6 6 6 6 6 6 6 6 6 6 7 7 8 8 8 8 8 8 9 9 9 9 8 7 6
3 2 2 2 1 1 1 1 1 2 2 3 4 4 5 5 5 6 6 7 7 7 8 9 9 9 9 8 8 8 8 8 8 8 8 8 8 8 8 8 8 8 8 7 7 7 7 6 6 6 6 6 6 7 7 8 8 8 8 8 8 8 9 9 9 9 8 7 7
10 9 7 6 5 4 3 2 2 2 2 2 3 3 3 3 3 4 4 5 5 6 6 7 7 7 7 7 7 7 7 7 7 7 8 8 8 8 8 8 8 8 8 8 8 7 7 7 6 6 6 7 7 7 8 8 8 8 8 8 8 8 9 9 9 9 8 8 8
16 16 15 14 13 11 9 8 7 7 6 6 6 5 5 5 5 5 5 5 6 6 6 6 6 6 6 7 7 7 8 8 8 8 9 9 9 9 9 9 9 9 9 8 8 8 7 7 7 7 7 8 8 9 9 9 9 9 8 8 8 8 8 9 9 9 8 8 8
18 18 18 18 18 17 16 16 15 14 13 13 12 11 11 11 10 10 10 11 10 10 9 10 10 10 10 10 10 10 10 10 10 10 11 11 11 10 10 9 9 9 9 9 9 8 8 9 9 9 9 9 10 10 10 10 10 9 9 8 8 9 9 8 8 8 8 7 7
16 16 17 17 18 18 18 18 18 17 17 16 16 15 15 15 14 15 15 15 14 14 14 13 14 14 13 13 13 13 12 12 12 12 12 11 11 10 10 10 9 9 9 9 9 10 10 10 10 10 11 11 11 12 11 11 10 10 9 9 9 9 9 9 8 8 8 7 7
14 14 15 15 15 15 16 16 16 16 16 16 16 16 15 15 15 15 15 15 15 14 14 14 14 13 13 13 13 13 12 12 12 11 11 11 10 10 10 10 10 10 10 10 10 11 11 11 11 12 12 12 12 12 12 11 11 11 10 10 10 10 10 9 9 8 8 7 7
13 13 13 13 13 13 13 14 14 14 14 14 14 14 14 14 14 14 13 13 13 13 13 12 12 12 12 12 11 11 11 11 10 10 10 9 9 9 10 10 10 10 11 11 11 11 12 12 12 12 13 13 13 12 12 12 12 12 11 11 11 10 10 9 9 8 8 8 8
12 12 12 12 12 12 12 12 12 12 12 12 12 12 12 12 12 12 12 12 12 12 11 11 11 11 11 11 11 10 10 10 9 9 9 9 9 9 10 10 10 10 11 11 11 11 12 12 12 12 13 13 13 13 12 12 12 12 12 11 11 11 10 10 9 9 9 9 9
10 10 10 10 10 10 10 10 10 10 10 10 10 11 11 11 11 11 11 11 11 11 11 11 11 11 11 11 11 10 10 10 10 10 9 9 9 9 10 10 10 10 10 10 11 11 11 11 12 12 12 12 12 12 12 12 12 12 11 11 11 11 11 11 10 10 9 9 9
8 8 8 8 8 8 8 8 8 8 8 8 8 8 8 9 9 9 9 9 9 10 10 10 10 10 10 11 11 11 11 11 11 11 11 11 10 10 10 10 10 10 10 10 10 10 10 11 11 11 12 12 12 12 12 11 11 11 11 11 12 12 12 12 12 11 11 10 10
7 7 7 7 7 7 7 7 7 7 7 7 7 7 7 7 7 7 7 7 8 8 8 9 9 9 9 10 10 10 11 11 11 12 12 12 11 11 11 11 10 10 10 10 10 10 10 10 11 11 11 11 11 11 11 10 10 10 11 11 12 12 13 13 13 12 12 11 10
7 7 7 7 7 7 7 7 7 7 7 7 7 7 7 7 7 7 7 7 7 7 7 8 8 8 9 9 10 10 10 11 11 12 12 12 12 12 12 12 11 11 11 10 10 10 10 10 10 11 11 11 10 10 9 9 9 10 10 11 12 12 13 13 13 13 13 13 11
8 8 8 8 8 8 8 8 8 8 8 8 8 8 8 8 8 7 7 7 7 7 7 8 8 8 8 9 9 9 10 10 11 11 12 12 12 12 13 13 12 12 12 11 11 10 10 10 10 11 10 10 9 9 8 8 8 9 10 11 11 12 13 13 13 14 14 14 13
9 9 9 9 9 10 10 10 10 10 9 9 9 9 9 9 8 8 8 8 8 8 8 8 8 8 9 9 9 9 9 10 10 11 11 12 12 12 13 13 13 13 12 12 11 11 10 10 10 11 10 10 9 8 7 7 7 8 9 10 11 11 12 13 14 14 14 14 14
9 9 9 10 10 10 10 10 10 10 10 10 10 10 10 9 9 9 9 9 9 9 8 8 9 9 9 9 9 10 10 10 10 11 11 12 12 12 13 13 13 13 13 12 12 11 11 11 10 10 10 10 8 7 7 6 7 7 8 8 10 11 12 13 13 13 13 14 14
8 9 9 9 9 10 10 10 10 10 10 10 10 10 10 10 10 10 10 10 10 10 9 9 9 9 9 9 10 10 11 11 11 11 12 12 12 13 13 13 14 13 13 13 13 12 12 11 11 10 10 9 8 7 6 6 6 6 7 7 8 10 11 12 13 13 13 13 14
8 8 9 9 9 9 10 10 11 11 11 11 11 11 11 11 11 11 11 11 11 10 10 10 10 10 10 10 10 10 10 11 12 12 12 12 13 13 13 14 14 14 13 13 13 13 12 12 12 11 10 9 8 7 6 6 6 6 6 7 7 9 10 11 12 13 14 14 15
8 8 9 9 9 10 11 11 11 12 12 13 13 13 13 13 13 12 12 12 12 12 11 11 11 10 10 10 10 10 10 10 11 11 12 12 13 13 14 14 14 14 14 14 14 13 13 12 12 11 11 10 8 7 6 6 6 6 6 6 7 8 8 9 11 12 14 17 18
9 10 10 10 11 11 11 12 13 13 14 15 15 16 16 16 15 15 15 14 14 13 13 12 12 11 10 10 10 10 10 10 10 10 11 12 12 13 13 14 14 14 14 14 14 14 13 13 12 12 11 10 9 8 7 6 6 6 6 6 6 7 7 8 9 11 14 18 21
11 11 11 11 12 12 12 12 13 14 15 16 16 17 17 18 18 18 18 17 17 16 15 14 13 12 12 11 11 10 10 10 10 10 10 10 11 12 12 13 13 13 14 14 14 14 14 13 13 12 12 11 10 9 8 7 6 6 6 6 6 6 6 6 6 8 11 15 20
12 12 11 11 11 11 11 12 12 13 13 14 15 16 17 18 19 20 20 20 20 19 18 16 15 14 14 13 12 11 11 10 10 9 9 10 10 11 11 12 12 13 13 13 14 14 14 13 13 13 12 11 11 10 9 8 7 7 7 7 6 6 6 5 5 6 7 10 14
11 11 11 10 10 9 9 9 10 10 10 11 12 13 14 16 17 18 19 20 20 20 19 18 18 16 15 14 13 13 12 11 11 10 10 10 10 10 11 11 12 12 13 13 13 14 14 13 13 13 12 12 11 11 10 9 8 8 7 7 7 6 6 5 5 5 6 7 8
10 9 9 8 8 8 8 8 7 7 7 7 8 8 9 11 12 13 15 16 16 17 17 18 17 17 16 16 15 15 14 13 12 12 11 11 11 10 11 11 11 12 12 13 13 14 14 14 13 13 12 12 12 11 10 9 9 8 8 7 7 6 6 6 6 6 5 6 6
7 7 6 6 6 6 6 6 6 6 6 5 5 5 5 5 6 7 8 9 11 12 13 14 15 15 15 16 15 15 15 15 14 14 13 13 12 12 11 11 12 12 12 13 14 14 14 14 13 13 12 12 12 11 10 10 9 9 8 8 7 7 7 6 6 6 6 6 7
4 4 4 4 5 5 5 6 6 6 5 5 4 3 3 3 3 4 5 6 7 9 10 11 11 12 13 13 14 14 14 15 15 15 15 15 14 14 13 13 12 12 12 13 14 14 14 14 14 13 13 12 12 11 10 10 9 9 9 8 8 7 7 7 7 6 6 6 7
2 3 3 4 4 5 5 6 6 6 6 5 5 4 4 4 4 5 5 6 7 8 8 9 10 10 11 11 12 13 13 14 15 15 16 16 16 15 15 15 14 14 13 14 14 14 15 15 15 14 14 13 12 11 11 10 10 9 9 8 8 8 7 7 7 7 7 7 8
3 4 5 5 6 6 7 7 7 7 7 7 6 6 6 5 6 6 6 7 8 8 9 9 10 10 11 11 12 13 13 14 14 15 15 16 16 16 16 16 16 15 15 15 15 15 15 15 15 15 14 13 12 12 11 10 9 9 9 8 8 8 8 8 8 8 9 9 10
6 6 7 8 8 9 9 9 9 8 8 8 8 8 8 7 7 7 7 8 9 10 10 11 11 12 12 13 13 14 14 15 15 15 15 15 16 16 16 16 16 16 16 16 16 16 16 16 16 15 14 14 13 12 11 10 9 9 9 9 9 9 9 10 12 13 14 14 14
9 9 10 10 11 11 11 10 10 10 9 9 10 9 9 9 9 9 9 10 10 11 11 12 13 13 14 15 15 16 16 16 16 16 16 16 16 16 15 15 16 16 17 17 17 17 17 17 16 16 15 14 13 11 10 10 9 9 9 9 9 10 12 16 18 20 20 20 20
11 12 12 12 12 12 12 11 11 11 11 11 11 11 11 11 11 11 11 11 12 12 13 13 14 15 16 17 17 17 17 17 17 18 18 18 18 18 18 17 17 17 17 17 17 18 18 17 17 16 15 14 12 11 10 9 9 8 8 9 10 13 17 22 24 25 24 24 24
13 13 13 13 13 12 12 12 12 12 12 12 12 12 12 12 12 12 12 13 13 14 14 15 16 16 17 18 18 18 17 17 18 18 18 19 20 21 21 21 20 19 18 18 18 18 18 18 17 16 15 14 12 11 10 9 8 8 8 9 12 16 20 24 25 24 24 23 24
13 13 13 13 13 13 13 13 13 13 13 13 13 13 13 13 13 13 14 14 14 15 15 16 16 17 17 17 17 17 16 15 13 12 11 12 15 18 21 23 23 22 21 19 19 18 18 18 17 17 16 14 13 11 10 9 8 8 8 10 14 18 21 23 22 21 21 21 20
Height
5775 5776 5777 5779 5779 5779 5780 5780 5780 5781 5782 5782 5783 5784 5784 5785 5785 5785 5785 5786 5786 5787 5787 5787 5787 5787 5787 5788 5788 5788 5787 5788 5788 5788 5788 5788 5788 5788 5788 5787 5787 5787 5787 5787 5786 5786 5786 5786 5785 5785 5785 5785 5784 5784 5784 5783 5783 5783 5782 5782 5782 5781 5781 5780 5780 5779 5779 5778 5778
5773 5774 5774 5775 5776 5777 5777 5777 5778 5778 5779 5780 5780 5780 5781 5781 5781 5782 5782 5783 5783 5784 5784 5784 5784 5784 5784 5784 5784 5784 5784 5784 5784 5784 5785 5785 5784 5785 5784 5784 5784 5784 5784 5783 5783 5783 5782 5782 5782 5782 5781 5781 5780 5780 5780 5780 5780 5780 5779 5779 5779 5778 5778 5777 5776 5776 5775 5775 5775
5770 5771 5771 5772 5773 5774 5774 5775 5775 5776 5776 5777 5777 5777 5778 5778 5778 5779 5780 5780 5780 5780 5781 5780 5781 5781 5781 5781 5781 5781 5781 5781 5781 5781 5781 5781 5781 5781 5781 5781 5781 5780 5780 5780 5780 5779 5779 5779 5779 5778 5778 5777 5777 5777 5776 5776 5776 5776 5776 5775 5775 5775 5775 5774 5773 5773 5772 5772 5772
5768 5768 5769 5769 5770 5770 5771 5771 5772 5773 5773 5774 5774 5775 5775 5775 5775 5776 5776 5777 5777 5777 5777 5777 5777 5778 5778 5778 5777 5777 5778 5778 5778 5778 5778 5778 5778 5778 5778 5778 5777 5777 5777 5776 5776 5776 5775 5775 5775 5775 5774 5774 5774 5773 5773 5772 5772 5772 5772 5772 5772 5772 5771 5771 5770 5770 5769 5769 5768
5765 5765 5766 5766 5766 5767 5767 5768 5769 5770 5770 5770 5771 5771 5772 5772 5772 5773 5773 5774 5774 5774 5774 5774 5774 5774 5774 5774 5774 5774 5774 5775 5775 5775 5775 5775 5775 5775 5775 5774 5774 5774 5774 5773 5773 5772 5772 5772 5771 5771 5771 5770 5770 5770 5769 5769 5769 5769 5768 5768 5768 5768 5768 5767 5767 5766 5766 5766 5765
5762 5762 5763 5763 5763 5764 5764 5765 5765 5766 5767 5767 5768 5768 5768 5769 5769 5770 5770 5770 5770 5771 5771 5771 5771 5771 5771 5771 5771 5771 5771 5771 5771 5772 5772 5772 5771 5771 5771 5771 5771 5770 5770 5770 5769 5769 5769 5768 5768 5768 5767 5767 5767 5766 5766 5765 5765 5765 5765 5765 5765 5765 5764 5764 5763 5763 5763 5762 5762
5759 5759 5760 5760 5760 5760 5761 5761 5762 5763 5763 5764 5764 5765 5765 5765 5766 5766 5767 5767 5767 5767 5767 5767 5768 5768 5768 5768 5768 5768 5768 5768 5768 5769 5769 5768 5768 5768 5768 5768 5767 5767 5766 5766 5766 5765 5765 5765 5764 5764 5764 5763 5763 5763 5762 5762 5762 5762 5761 5761 5761 5761 5761 5760 5760 5760 5759 5759 5759
5755 5756 5756 5756 5757 5757 5757 5758 5758 5759 5760 5760 5760 5761 5761 5762 5762 5762 5762 5763 5763 5764 5764 5764 5764 5764 5765 5765 5765 5765 5765 5765 5765 5765 5765 5765 5765 5764 5764 5764 5764 5763 5763 5762 5762 5761 5761 5761 5760 5760 5760 5760 5760 5759 5759 5759 5759 5758 5758 5758 5757 5757 5757 5757 5756 5756 5756 5755 5755
5752 5752 5752 5753 5753 5754 5754 5754 5755 5755 5756 5756 5756 5757 5757 5758 5758 5758 5758 5759 5759 5759 5760 5760 5760 5761 5761 5761 5761 5761 5761 5761 5761 5761 5761 5761 5761 5760 5760 5760 5760 5759 5759 5758 5758 5758 5757 5757 5757 5756 5756 5756 5756 5755 5755 5755 5755 5755 5754 5754 5754 5753 5753 5753 5753 5752 5752 5752 5752
5748 5748 5749 5749 5750 5750 5750 5751 5751 5752 5752 5752 5753 5753 5754 5754 5754 5754 5754 5754 5755 5755 5755 5756 5756 5757 5757 5757 5757 5757 5757 5757 5757 5757 5757 5756 5756 5756 5756 5756 5755 5755 5755 5754 5754 5754 5753 5753 5753 5753 5752 5752 5752 5752 5752 5752 5751 5751 5750 5750 5750 5750 5749 5749 5749 5749 5748 5748 5748
5744 5744 5745 5745 5746 5746 5747 5747 5748 5748 5748 5749 5749 5749 5750 5750 5750 5750 5750 5750 5751 5751 5751 5752 5752 5752 5752 5752 5753 5753 5753 5753 5753 5753 5753 5752 5752 5752 5752 5752 5751 5751 5750 5750 5750 5750 5750 5749 5749 5749 5749 5749 5749 5748 5748 5748 5748 5748 5747 5747 5747 5746 5746 5745 5745 5745 5745 5744 5744
5740 5740 5741 5741 5742 5742 5743 5744 5744 5744 5745 5745 5745 5745 5745 5745 5746 5746 5746 5746 5746 5747 5747 5747 5748 5748 5748 5748 5748 5749 5749 5749 5749 5749 5748 5748 5748 5748 5748 5747 5747 5747 5746 5746 5746 5746 5746 5745 5745 5745 5745 5745 5745 5745 5745 5744 5744 5744 5744 5743 5743 5743 5743 5742 5742 5741 5741 5741 5740
5736 5736 5737 5737 5738 5739 5739 5740 5740 5740 5740 5741 5741 5741 5741 5741 5742 5742 5742 5742 5742 5743 5743 5743 5743 5744 5744 5744 5744 5744 5744 5744 5744 5744 5744 5744 5744 5744 5743 5743 5743 5742 5742 5742 5742 5742 5742 5741 5741 5741 5741 5741 5741 5741 5741 5741 5740 5740 5740 5740 5740 5740 5739 5739 5739 5738 5738 5737 5737
5733 5733 5734 5734 5735 5735 5735 5736 5736 5736 5737 5737 5737 5737 5737 5738 5738 5738 5738 5738 5738 5738 5739 5739 5739 5739 5739 5739 5740 5740 5740 5740 5740 5740 5740 5740 5739 5739 5739 5739 5738 5738 5738 5738 5738 5738 5738 5737 5737 5737 5737 5737 5737 5737 5737 5737 5737 5737 5737 5736 5736 5736 5735 5735 5735 5735 5734 5734 5734
5730 5730 5730 5731 5731 5731 5732 5732 5732 5732 5733 5733 5733 5733 5734 5734 5734 5734 5734 5734 5734 5734 5735 5735 5735 5735 5735 5735 5735 5735 5735 5735 5735 5735 5735 5735 5735 5735 5734 5734 5734 5734 5734 5734 5734 5734 5734 5734 5734 5734 5734 5733 5733 5733 5733 5733 5733 5733 5733 5733 5732 5732 5732 5731 5731 5731 5731 5730 5730
5726 5727 5727 5728 5728 5728 5728 5728 5729 5729 5729 5729 5729 5730 5730 5730 5730 5730 5730 5730 5730 5730 5730 5730 5730 5730 5730 5730 5730 5730 5731 5731 5731 5731 5730 5730 5730 5730 5730 5730 5730 5730 5730 5730 5730 5730 5730 5730 5730 5730 5730 5730 5730 5730 5729 5729 5729 5729 5729 5729 5729 5728 5728 5728 5728 5727 5727 5727 5727
5723 5723 5724 5724 5724 5725 5725 5725 5725 5725 5725 5725 5726 5726 5726 5726 5726 5726 5726 5726 5726 5726 5726 5726 5726 5726 5726 5726 5726 5726 5726 5726 5726 5726 5726 5726 5726 5726 5726 5726 5726 5726 5726 5726 5726 5726 5726 5726 5726 5726 5726 5726 5726 5726 5725 5725 5725 5725 5725 5725 5725 5725 5724 5724 5724 5724 5724 5723 5723
5720 5720 5720 5721 5721 5721 5721 5721 5721 5722 5722 5722 5722 5722 5722 5722 5722 5722 5722 5722 5722 5722 5722 5722 5722 5722 5722 5722 5722 5722 5722 5722 5722 5722 5722 5722 5722 5722 5722 5722 5722 5722 5722 5722 5722 5722 5722 5722 5722 5722 5722 5722 5722 5722 5722 5722 5722 5721 5721 5721 5721 5720 5720 5720 5720 5720 5720 5720 5720
5717 5717 5717 5717 5717 5717 5718 5718 5718 5718 5718 5718 5718 5719 5718 5718 5718 5718 5718 5718 5718 5718 5718 5718 5718 5718 5718 5718 5718 5718 5718 5718 5718 5718 5718 5718 5718 5718 5718 5718 5718 5718 5719 5719 5719 5719 5719 5719 5719 5719 5719 5719 5719 5718 5718 5718 5718 5718 5718 5717 5717 5717 5717 5717 5716 5716 5716 5716 5716
5714 5714 5714 5714 5714 5714 5714 5714 5715 5715 5715 5715 5715 5715 5715 5715 5715 5715 5715 5715 5715 5715 5715 5714 5714 5714 5714 5714 5714 5714 5714 5714 5714 5714 5714 5714 5714 5714 5714 5714 5714 5715 5715 5715 5715 5715 5715 5715 5715 5715 5715 5715 5715 5715 5715 5715 5715 5714 5714 5714 5713 5713 5713 5713 5713 5713 5713 5713 5713
5710 5710 5710 5710 5711 5711 5711 5711 5711 5711 5711 5711 5711 5711 5711 5711 5711 5711 5711 5711 5711 5711 5711 5710 5710 5710 5710 5710 5710 5710 5710 5710 5710 5710 5710 5710 5710 5710 5710 5710 5710 5710 5711 5711 5711 5711 5711 5711 5711 5711 5711 5711 5711 5711 5711 5711 5711 5711 5710 5710 5710 5710 5710 5709 5709 5709 5709 5709 5709
5707 5707 5707 5707 5707 5708 5708 5708 5708 5708 5708 5708 5708 5707 5707 5707 5707 5707 5707 5707 5707 5707 5707 5707 5707 5706 5706 5706 5706 5706 5706 5706 5706 5706 5706 5706 5706 5706 5706 5706 5707 5707 5707 5707 5707 5707 5707 5707 5707 5708 5708 5708 5708 5708 5708 5708 5708 5707 5707 5707 5706 5706 5706 5706 5705 5705 5705 5705 5705
5704 5704 5704 5704 5704 5705 5705 5705 5705 5704 5704 5704 5704 5704 5704 5704 5703 5703 5704 5704 5704 5704 5703 5703 5703 5703 5702 5702 5702 5702 5702 5702 5702 5702 5702 5702 5702 5702 5702 5703 5703 5703 5703 5703 5703 5703 5704 5704 5704 5704 5704 5704 5704 5704 5704 5704 5704 5704 5704 5704 5703 5703 5703 5702 5702 5702 5701 5701 5701
5701 5701 5701 5701 5701 5701 5701 5701 5701 5701 5701 5701 5700 5700 5700 5700 5700 5700 5700 5700 5700 5700 5700 5700 5699 5699 5699 5698 5698 5698 5698 5698 5698 5698 5698 5698 5698 5698 5698 5699 5699 5699 5699 5699 5699 5700 5700 5700 5700 5700 5700 5701 5701 5701 5700 5700 5700 5700 5700 5700 5700 5700 5699 5699 5699 5699 5698 5698 5697
5698 5698 5698 5698 5698 5698 5698 5698 5698 5698 5697 5697 5697 5697 5696 5696 5696 5696 5696 5696 5696 5696 5696 5696 5696 5695 5695 5695 5695 5694 5694 5694 5694 5694 5694 5694 5694 5695 5695 5695 5695 5694 5695 5695 5695 5696 5696 5696 5696 5697 5697 5697 5697 5697 5697 5697 5697 5697 5697 5697 5697 5696 5696 5696 5695 5695 5695 5695 5694
5694 5694 5694 5695 5695 5695 5695 5695 5694 5694 5694 5694 5693 5693 5693 5693 5693 5693 5693 5693 5693 5693 5693 5692 5692 5692 5691 5691 5691 5690 5690 5690 5690 5690 5690 5690 5690 5690 5690 5690 5690 5690 5690 5691 5691 5692 5692 5693 5693 5693 5693 5693 5694 5694 5694 5694 5694 5694 5694 5694 5693 5693 5693 5693 5692 5692 5692 5691 5691
5691 5691 5691 5691 5691 5691 5691 5691 5691 5690 5690 5690 5690 5690 5689 5689 5689 5689 5689 5689 5689 5689 5689 5689 5688 5688 5688 5687 5687 5687 5687 5686 5686 5686 5686 5686 5686 5686 5686 5686 5686 5686 5686 5687 5687 5688 5688 5689 5689 5689 5690 5690 5690 5690 5690 5690 5690 5690 5690 5690 5690 5690 5690 5690 5689 5689 5688 5688 5687
5687 5688 5688 5688 5688 5688 5688 5688 5687 5687 5687 5686 5686 5686 5686 5685 5685 5685 5685 5685 5685 5685 5685 5685 5684 5684 5684 5684 5683 5683 5683 5683 5683 5682 5682 5682 5682 5682 5682 5682 5682 5682 5682 5683 5683 5684 5685 5685 5685 5686 5686 5686 5686 5686 5687 5687 5687 5687 5687 5687 5687 5687 5687 5686 5686 5685 5685 5685 5684
5684 5684 5684 5684 5685 5684 5684 5684 5684 5684 5684 5683 5683 5683 5682 5682 5682 5682 5682 5682 5682 5681 5681 5680 5680 5680 5680 5680 5679 5679 5679 5679 5679 5679 5679 5679 5679 5678 5678 5678 5678 5678 5678 5679 5679 5680 5680 5681 5682 5682 5682 5682 5683 5683 5683 5683 5684 5684 5684 5684 5684 5684 5683 5683 5682 5682 5682 5681 5680
5680 5680 5681 5681 5681 5681 5681 5681 5681 5681 5680 5680 5680 5679 5679 5679 5679 5679 5679 5678 5678 5677 5677 5676 5676 5676 5676 5675 5675 5675 5675 5675 5675 5675 5675 5675 5675 5675 5674 5674 5674 5674 5675 5675 5675 5676 5676 5677 5678 5678 5678 5679 5679 5679 5680 5680 5680 5680 5680 5680 5680 5680 5680 5680 5679 5679 5678 5678 5677
5677 5677 5677 5677 5678 5678 5678 5678 5678 5677 5677 5677 5676 5676 5676 5675 5675 5675 5675 5675 5675 5674 5673 5673 5672 5672 5672 5671 5671 5671 5671 5671 5671 5671 5671 5671 5671 5670 5670 5670 5670 5670 5670 5671 5671 5672 5673 5673 5674 5674 5675 5675 5675 5675 5676 5676 5676 5676 5676 5676 5677 5677 5676 5676 5676 5675 5675 5675 5674
5674 5674 5674 5674 5674 5674 5675 5675 5675 5674 5674 5674 5673 5673 5673 5672 5672 5672 5672 5672 5671 5670 5670 5669 5669 5669 5668 5668 5668 5667 5667 5667 5667 5667 5667 5667 5667 5667 5666 5667 5666 5667 5667 5667 5668 5668 5669 5669 5670 5670 5670 5671 5671 5672 5672 5672 5672 5673 5673 5673 5673 5673 5673 5673 5673 5672 5672 5672 5671
5670 5670 5670 5670 5671 5671 5671 5671 5671 5671 5671 5670 5670 5670 5670 5669 5669 5669 5669 5668 5668 5667 5666 5666 5665 5665 5665 5664 5664 5664 5664 5663 5663 5663 5663 5663 5663 5663 5663 5663 5663 5663 5663 5664 5664 5664 5665 5665 5666 5666 5667 5667 5668 5668 5668 5669 5669 5669 5669 5670 5670 5670 5669 5669 5669 5669 5669 5669 5668
5667 5667 5667 5667 5667 5667 5668 5668 5668 5668 5667 5667 5667 5666 5666 5666 5666 5665 5665 5665 5664 5664 5663 5662 5662 5661 5661 5660 5660 5660 5660 5660 5660 5660 5659 5659 5659 5659 5659 5659 5659 5659 5660 5660 5660 5660 5661 5661 5662 5662 5663 5664 5664 5664 5665 5665 5665 5665 5666 5666 5666 5666 5666 5666 5666 5666 5665 5665 5665
5663 5663 5663 5663 5664 5664 5664 5664 5664 5664 5664 5664 5663 5663 5663 5663 5662 5662 5661 5661 5660 5660 5659 5659 5658 5658 5657 5657 5657 5656 5656 5656 5656 5656 5655 5655 5655 5655 5655 5655 5655 5655 5655 5656 5656 5657 5657 5658 5658 5659 5659 5660 5660 5660 5661 5661 5662 5662 5662 5662 5662 5662 5662 5662 5662 5662 5662 5662 5662
5660 5660 5660 5660 5660 5660 5660 5660 5660 5660 5660 5660 5660 5660 5659 5659 5659 5658 5658 5657 5657 5656 5656 5655 5655 5654 5654 5653 5653 5653 5653 5652 5652 5652 5652 5652 5651 5651 5651 5651 5651 5651 5652 5652 5652 5653 5653 5654 5654 5655 5655 5656 5656 5657 5657 5658 5658 5659 5659 5659 5659 5659 5659 5659 5659 5659 5659 5659 5659
5656 5656 5656 5656 5656 5656 5656 5656 5656 5656 5656 5656 5656 5656 5655 5655 5655 5654 5654 5654 5653 5653 5652 5652 5651 5651 5650 5650 5650 5649 5649 5649 5649 5649 5648 5648 5648 5647 5647 5647 5647 5647 5648 5648 5648 5649 5649 5650 5650 5651 5652 5652 5653 5654 5654 5655 5655 5655 5655 5656 5656 5656 5656 5655 5655 5655 5655 5655 5655
5652 5652 5652 5652 5652 5652 5652 5652 5653 5652 5652 5652 5652 5652 5652 5651 5651 5651 5650 5650 5650 5649 5649 5648 5648 5647 5647 5646 5646 5646 5646 5645 5645 5645 5645 5644 5644 5643 5643 5643 5643 5643 5644 5644 5645 5645 5645 5646 5647 5647 5648 5649 5649 5650 5650 5651 5651 5652 5652 5653 5653 5652 5652 5652 5652 5652 5652 5652 5652
5648 5648 5648 5648 5648 5648 5649 5649 5649 5649 5649 5649 5648 5648 5648 5648 5647 5647 5647 5646 5646 5645 5645 5645 5644 5644 5644 5643 5643 5643 5642 5642 5642 5641 5641 5640 5640 5640 5639 5639 5639 5640 5640 5640 5640 5641 5642 5642 5643 5644 5645 5645 5646 5646 5647 5648 5648 5649 5649 5649 5649 5649 5649 5648 5648 5648 5648 5649 5649
5644 5644 5644 5644 5645 5645 5645 5645 5645 5645 5645 5645 5645 5644 5644 5644 5644 5643 5643 5643 5642 5642 5641 5641 5641 5640 5640 5640 5640 5639 5639 5639 5639 5638 5637 5637 5636 5636 5635 5635 5635 5635 5636 5636 5637 5637 5638 5639 5639 5640 5641 5642 5642 5643 5644 5645 5645 5646 5646 5646 5646 5646 5645 5645 5645 5645 5645 5646 5646
5641 5641 5641 5641 5641 5641 5641 5641 5641 5641 5641 5641 5641 5640 5640 5640 5640 5640 5639 5639 5639 5638 5638 5638 5637 5637 5637 5637 5636 5636 5636 5636 5635 5635 5634 5634 5633 5632 5632 5632 5632 5632 5632 5633 5633 5634 5635 5635 5636 5637 5637 5638 5639 5640 5641 5641 5642 5643 5643 5643 5643 5643 5642 5642 5642 5643 5643 5643 5644